442P/McNaught (2022)

Japanese version
Home page
Updated on September 11, 2022

---------------------------------------------------------------------

* Profile

Designation 442P/2022 G1
Recovery Date April 5, 2022
Magnitude 20.0 mag
Recoverer Hidetaka Sato (iTelescope Observatory, Siding Spring)

* Pictures

* Orbital Elements

Epoch 2022 Aug. 9.0 TT = JDT 2459800.5
T 2022 Aug. 19.17581 TT                                 Rudenko
q   2.3225607            (2000.0)            P               Q
n   0.08875266     Peri.  310.98614     +0.95409837     +0.29421974
a   4.9775444      Node    32.01949     -0.23319117     +0.84703609
e   0.5333923      Incl.    6.05803     -0.18793133     +0.44267890
P  11.1
From 267 observations 2000 Nov. 28-2022 Sept. 5, mean residual 0".7.

* Magnitudes Graph

        m1 = 13.5 + 5 log d + 10.0 log r

---------------------------------------------------------------------

The orbital elements are published on M.P.E.C. 2022-R139.
The magnitudes graphs are made with Comet for Windows.

---------------------------------------------------------------------

Copyright(C) Seiichi Yoshida (comet@aerith.net). All rights reserved.